WMT8ZY LROP-EKCH

Flight info

Callsign WMT8ZY
Flight time N/A
Altitude 34000
Route BUKEL DCT KENIN DCT LENOV DCT MOLIL DCT KOLOB DCT ROE M743 TIDVU
Aircraft A21N/M-SDE1E2E3FGIJ1J4RWXY/LB1

Departure

Time 2026-05-05 17:17
Airport Bucharest Henri Coandă International Airport (LROP)

Arrival

Time N/A
Airport Copenhagen Kastrup Airport (EKCH)
Time Latitude Longitude Altitude Speed Heading
2026-05-05 16:19 44.57010 26.08081 328 ft 0 kts 354°
2026-05-05 16:21 44.57011 26.08080 328 ft 0 kts 354°
2026-05-05 16:56 44.57005 26.08081 324 ft 4 kts 354°
2026-05-05 16:57 44.56978 26.08085 325 ft 4 kts 354°
2026-05-05 16:57 44.56955 26.08088 325 ft 3 kts 354°
2026-05-05 16:57 44.56936 26.08085 326 ft 4 kts 56°
2026-05-05 16:57 44.56931 26.08055 325 ft 4 kts 84°
2026-05-05 16:58 44.56929 26.08038 324 ft 0 kts 84°
2026-05-05 17:02 44.56929 26.08039 328 ft 0 kts 84°
2026-05-05 17:02 44.56931 26.08061 324 ft 4 kts 84°
2026-05-05 17:02 44.56934 26.08106 324 ft 5 kts 84°
2026-05-05 17:03 44.56938 26.08164 328 ft 7 kts 84°
2026-05-05 17:03 44.56944 26.08235 328 ft 8 kts 83°
2026-05-05 17:03 44.56951 26.08321 326 ft 10 kts 85°
2026-05-05 17:03 44.56916 26.08403 324 ft 11 kts 139°
2026-05-05 17:04 44.56897 26.08482 328 ft 0 kts 85°
2026-05-05 17:04 44.56898 26.08490 328 ft 2 kts 85°
2026-05-05 17:04 44.56902 26.08520 328 ft 4 kts 65°
2026-05-05 17:04 44.56926 26.08546 325 ft 5 kts 18°
2026-05-05 17:05 44.56966 26.08544 325 ft 7 kts 352°
2026-05-05 17:05 44.57016 26.08537 327 ft 8 kts 354°
2026-05-05 17:05 44.57076 26.08528 326 ft 9 kts 354°
2026-05-05 17:05 44.57146 26.08518 325 ft 11 kts 354°
2026-05-05 17:06 44.57225 26.08506 325 ft 12 kts 354°
2026-05-05 17:06 44.57314 26.08493 327 ft 13 kts 354°
2026-05-05 17:06 44.57411 26.08479 326 ft 15 kts 354°
2026-05-05 17:06 44.57477 26.08476 326 ft 8 kts 25°
2026-05-05 17:07 44.57497 26.08553 324 ft 9 kts 84°
2026-05-05 17:07 44.57504 26.08651 328 ft 11 kts 84°
2026-05-05 17:07 44.57513 26.08762 325 ft 12 kts 84°
2026-05-05 17:07 44.57522 26.08886 327 ft 13 kts 84°
2026-05-05 17:08 44.57532 26.09021 328 ft 15 kts 84°
2026-05-05 17:08 44.57543 26.09170 327 ft 16 kts 84°
2026-05-05 17:08 44.57555 26.09327 324 ft 17 kts 84°
2026-05-05 17:08 44.57568 26.09493 325 ft 18 kts 83°
2026-05-05 17:09 44.57582 26.09669 326 ft 19 kts 83°
2026-05-05 17:09 44.57596 26.09854 328 ft 20 kts 85°
2026-05-05 17:09 44.57610 26.10048 328 ft 20 kts 83°
2026-05-05 17:09 44.57625 26.10249 328 ft 21 kts 84°
2026-05-05 17:10 44.57641 26.10459 325 ft 22 kts 84°
2026-05-05 17:10 44.57657 26.10676 326 ft 23 kts 84°
2026-05-05 17:10 44.57674 26.10902 328 ft 24 kts 84°
2026-05-05 17:10 44.57692 26.11136 327 ft 25 kts 84°
2026-05-05 17:11 44.57710 26.11379 328 ft 25 kts 84°
2026-05-05 17:11 44.57729 26.11631 325 ft 26 kts 84°
2026-05-05 17:11 44.57749 26.11890 328 ft 27 kts 84°
2026-05-05 17:11 44.57765 26.12102 328 ft 16 kts 84°
2026-05-05 17:12 44.57776 26.12258 325 ft 17 kts 84°
2026-05-05 17:12 44.57789 26.12423 327 ft 18 kts 84°
2026-05-05 17:12 44.57802 26.12599 325 ft 18 kts 84°
2026-05-05 17:12 44.57812 26.12730 326 ft 0 kts 84°
2026-05-05 17:13 44.57812 26.12733 326 ft 1 kts 84°
2026-05-05 17:13 44.57814 26.12764 326 ft 5 kts 84°
2026-05-05 17:13 44.57819 26.12824 327 ft 7 kts 81°
2026-05-05 17:13 44.57852 26.12875 327 ft 6 kts 11°
2026-05-05 17:14 44.57866 26.12872 326 ft 0 kts 333°
2026-05-05 17:15 44.57867 26.12871 325 ft 1 kts 333°
2026-05-05 17:15 44.57888 26.12854 327 ft 6 kts 328°
2026-05-05 17:15 44.57926 26.12817 325 ft 7 kts 322°
2026-05-05 17:15 44.57968 26.12766 328 ft 9 kts 310°
2026-05-05 17:16 44.57983 26.12678 326 ft 10 kts 261°
2026-05-05 17:16 44.57980 26.12656 326 ft 0 kts 261°
2026-05-05 17:17 44.57958 26.12393 328 ft 63 kts 264°
2026-05-05 17:17 44.57889 26.11448 328 ft 129 kts 264°
2026-05-05 17:17 44.57773 26.09945 341 ft 175 kts 263°
2026-05-05 17:17 44.57662 26.08303 943 ft 170 kts 264°
2026-05-05 17:18 44.57557 26.06631 1494 ft 172 kts 264°
2026-05-05 17:18 44.57425 26.04957 2111 ft 174 kts 263°
2026-05-05 17:18 44.57285 26.03283 2747 ft 174 kts 264°
2026-05-05 17:18 44.57157 26.01590 3344 ft 176 kts 269°
2026-05-05 17:19 44.57509 25.99904 3698 ft 193 kts 306°
2026-05-05 17:19 44.58618 25.98752 4085 ft 208 kts 338°
2026-05-05 17:19 44.60037 25.98060 4531 ft 227 kts 341°
2026-05-05 17:19 44.61604 25.97281 4903 ft 249 kts 341°
2026-05-05 17:20 44.63274 25.96411 5521 ft 259 kts 340°
2026-05-05 17:20 44.64970 25.95516 6333 ft 261 kts 341°
2026-05-05 17:20 44.66680 25.94614 7160 ft 263 kts 341°
2026-05-05 17:20 44.68390 25.93706 7967 ft 264 kts 341°
2026-05-05 17:21 44.70112 25.92788 8765 ft 265 kts 341°
2026-05-05 17:21 44.71848 25.91862 9560 ft 267 kts 342°
2026-05-05 17:21 44.73570 25.90945 10222 ft 273 kts 342°
2026-05-05 17:22 44.77377 25.88913 10846 ft 308 kts 342°
2026-05-05 17:22 44.79373 25.87843 11358 ft 315 kts 342°
2026-05-05 17:22 44.81442 25.86732 12005 ft 320 kts 342°
2026-05-05 17:22 44.83534 25.85607 12676 ft 324 kts 342°
2026-05-05 17:23 44.85650 25.84471 13344 ft 328 kts 343°
2026-05-05 17:23 44.87799 25.83318 13987 ft 332 kts 343°
2026-05-05 17:23 44.89972 25.82152 14586 ft 336 kts 343°
2026-05-05 17:23 44.92173 25.80974 15189 ft 340 kts 343°
2026-05-05 17:24 44.94393 25.79784 15778 ft 344 kts 343°
2026-05-05 17:24 44.96634 25.78579 16380 ft 347 kts 342°
2026-05-05 17:24 44.98913 25.77348 16967 ft 351 kts 342°
2026-05-05 17:24 45.01202 25.76114 17559 ft 355 kts 342°
2026-05-05 17:25 45.03524 25.74856 18127 ft 359 kts 342°
2026-05-05 17:25 45.05076 25.74017 18477 ft 362 kts 342°
2026-05-05 17:25 45.08171 25.72084 19168 ft 369 kts 331°
2026-05-05 17:25 45.10278 25.69992 19724 ft 372 kts 326°
2026-05-05 17:26 45.12345 25.67753 20258 ft 374 kts 324°
2026-05-05 17:26 45.14412 25.65494 20791 ft 376 kts 324°
2026-05-05 17:26 45.16498 25.63234 21319 ft 378 kts 324°
2026-05-05 17:26 45.18603 25.60967 21856 ft 380 kts 324°
2026-05-05 17:27 45.20713 25.58700 22362 ft 382 kts 324°
2026-05-05 17:27 45.22839 25.56410 22860 ft 385 kts 324°
2026-05-05 17:27 45.24976 25.54104 23367 ft 387 kts 323°
2026-05-05 17:27 45.27133 25.51783 23814 ft 389 kts 323°
2026-05-05 17:28 45.29293 25.49449 24227 ft 391 kts 323°
2026-05-05 17:28 45.31470 25.47097 24614 ft 394 kts 323°
2026-05-05 17:28 45.33644 25.44748 24974 ft 397 kts 323°
2026-05-05 17:28 45.35844 25.42368 25346 ft 399 kts 323°
2026-05-05 17:29 45.38060 25.39969 25720 ft 401 kts 323°
2026-05-05 17:29 45.40285 25.37555 26090 ft 403 kts 323°
2026-05-05 17:29 45.42523 25.35131 26463 ft 405 kts 323°
2026-05-05 17:29 45.44766 25.32696 26836 ft 407 kts 323°
2026-05-05 17:30 45.47021 25.30235 27250 ft 408 kts 323°
2026-05-05 17:30 45.49272 25.27784 27625 ft 409 kts 323°
2026-05-05 17:30 45.51543 25.25311 27918 ft 412 kts 322°
2026-05-05 17:30 45.53835 25.22814 28228 ft 415 kts 322°
2026-05-05 17:31 45.56129 25.20310 28588 ft 417 kts 322°
2026-05-05 17:31 45.58440 25.17782 28895 ft 419 kts 322°
2026-05-05 17:31 45.60755 25.15250 29180 ft 421 kts 322°
2026-05-05 17:31 45.63083 25.12694 29494 ft 422 kts 322°
2026-05-05 17:32 45.65417 25.10131 29806 ft 424 kts 322°
2026-05-05 17:32 45.67755 25.07564 30094 ft 425 kts 322°
2026-05-05 17:32 45.70113 25.04977 30346 ft 427 kts 322°
2026-05-05 17:32 45.72475 25.02379 30595 ft 429 kts 322°
2026-05-05 17:33 45.74816 24.99803 30831 ft 430 kts 322°
2026-05-05 17:33 45.77190 24.97185 31064 ft 432 kts 322°
2026-05-05 17:33 45.79555 24.94572 31324 ft 432 kts 322°
2026-05-05 17:33 45.81932 24.91946 31620 ft 431 kts 322°
2026-05-05 17:34 45.84311 24.89316 31897 ft 431 kts 322°
2026-05-05 17:34 45.86677 24.86696 32179 ft 430 kts 322°
2026-05-05 17:34 45.89049 24.84068 32456 ft 429 kts 323°
2026-05-05 17:34 45.91409 24.81452 32711 ft 429 kts 323°
2026-05-05 17:35 45.93767 24.78829 32964 ft 428 kts 323°
2026-05-05 17:35 45.96122 24.76207 33208 ft 428 kts 323°
2026-05-05 17:35 45.98477 24.73588 33450 ft 427 kts 323°
2026-05-05 17:35 46.00826 24.70967 33685 ft 427 kts 323°
2026-05-05 17:36 46.03166 24.68340 33928 ft 426 kts 323°
2026-05-05 17:36 46.07855 24.63098 33989 ft 427 kts 323°
2026-05-05 17:37 46.12550 24.57836 33957 ft 427 kts 323°
2026-05-05 17:37 46.17236 24.52575 33950 ft 427 kts 323°
2026-05-05 17:38 46.21920 24.47304 33941 ft 427 kts 323°
2026-05-05 17:38 46.26611 24.42019 33941 ft 427 kts 323°
2026-05-05 17:39 46.31282 24.36741 33936 ft 426 kts 323°
2026-05-05 17:39 46.35947 24.31452 33936 ft 426 kts 323°
2026-05-05 17:40 46.40615 24.26157 33933 ft 426 kts 323°
2026-05-05 17:40 46.44515 24.21721 33936 ft 426 kts 323°
2026-05-05 17:41 46.49168 24.16411 33935 ft 423 kts 323°
2026-05-05 17:41 46.53782 24.11130 33939 ft 423 kts 322°
2026-05-05 17:42 46.58381 24.05855 33937 ft 423 kts 323°
2026-05-05 17:42 46.63014 24.00554 33939 ft 423 kts 322°
2026-05-05 17:43 46.67606 23.95269 33940 ft 424 kts 322°
2026-05-05 17:43 46.72218 23.89944 33938 ft 424 kts 322°
2026-05-05 17:44 46.76841 23.84605 33937 ft 424 kts 322°
2026-05-05 17:44 46.81445 23.79270 33937 ft 424 kts 322°
2026-05-05 17:45 46.86031 23.73922 33942 ft 424 kts 322°
2026-05-05 17:45 46.90658 23.68556 33938 ft 424 kts 322°
2026-05-05 17:46 46.95270 23.63184 33936 ft 425 kts 322°
2026-05-05 17:46 46.99862 23.57813 33935 ft 425 kts 322°
2026-05-05 17:47 47.04486 23.52403 33935 ft 425 kts 322°
2026-05-05 17:47 47.09104 23.46981 33938 ft 425 kts 322°
2026-05-05 17:48 47.13722 23.41549 33936 ft 425 kts 322°
2026-05-05 17:48 47.18328 23.36112 33938 ft 426 kts 321°
2026-05-05 17:49 47.22947 23.30641 33945 ft 426 kts 321°
2026-05-05 17:49 47.27556 23.25161 33936 ft 426 kts 321°
2026-05-05 17:50 47.32154 23.19689 33925 ft 427 kts 321°
2026-05-05 17:50 47.36783 23.14208 33933 ft 427 kts 321°
2026-05-05 17:51 47.41401 23.08705 33931 ft 427 kts 321°
2026-05-05 17:51 47.45996 23.03208 33935 ft 427 kts 321°
2026-05-05 17:52 47.50606 22.97663 33932 ft 427 kts 321°
2026-05-05 17:52 47.55221 22.92109 33931 ft 427 kts 321°
2026-05-05 17:53 47.59845 22.86570 33936 ft 427 kts 321°
2026-05-05 17:53 47.64451 22.81015 33936 ft 427 kts 320°
2026-05-05 17:54 47.69027 22.75475 33934 ft 427 kts 320°
2026-05-05 17:54 47.73643 22.69878 33934 ft 428 kts 320°
2026-05-05 17:55 47.78252 22.64273 33928 ft 427 kts 320°
2026-05-05 17:55 47.82849 22.58675 33923 ft 427 kts 320°
2026-05-05 17:56 47.87450 22.53055 33917 ft 428 kts 320°
2026-05-05 17:56 47.92020 22.47457 33912 ft 428 kts 320°
2026-05-05 17:57 47.96643 22.41773 33911 ft 428 kts 319°
2026-05-05 17:57 48.01240 22.36121 33909 ft 428 kts 319°
2026-05-05 17:58 48.05839 22.30451 33905 ft 428 kts 319°
2026-05-05 17:58 48.10381 22.24841 33902 ft 428 kts 319°
2026-05-05 17:59 48.14937 22.19191 33903 ft 429 kts 319°
2026-05-05 17:59 48.19505 22.13517 33898 ft 429 kts 319°
2026-05-05 18:00 48.24100 22.07793 33897 ft 430 kts 319°
2026-05-05 18:00 48.28703 22.02030 33902 ft 431 kts 319°
2026-05-05 18:01 48.33307 21.96239 33907 ft 431 kts 319°
2026-05-05 18:01 48.38142 21.90844 33901 ft 434 kts 327°
2026-05-05 18:02 48.43299 21.86098 33896 ft 435 kts 327°
2026-05-05 18:02 48.48470 21.81337 33901 ft 436 kts 327°
2026-05-05 18:03 48.53640 21.76561 33897 ft 437 kts 327°
2026-05-05 18:03 48.58809 21.71768 33896 ft 437 kts 327°
2026-05-05 18:04 48.63996 21.66954 33892 ft 437 kts 327°
2026-05-05 18:04 48.69183 21.62126 33891 ft 437 kts 327°
2026-05-05 18:05 48.74364 21.57278 33887 ft 437 kts 327°
2026-05-05 18:05 48.79541 21.52427 33886 ft 437 kts 327°
2026-05-05 18:06 48.84718 21.47557 33888 ft 438 kts 326°
2026-05-05 18:06 48.89887 21.42689 33889 ft 438 kts 326°
2026-05-05 18:07 48.95073 21.37802 33888 ft 438 kts 326°
2026-05-05 18:07 49.00244 21.32912 33892 ft 438 kts 326°
2026-05-05 18:08 49.05412 21.28014 33897 ft 437 kts 326°
2026-05-05 18:08 49.10563 21.23110 33898 ft 437 kts 326°
2026-05-05 18:09 49.15719 21.18194 33897 ft 437 kts 326°
2026-05-05 18:09 49.20883 21.13266 33897 ft 437 kts 326°
2026-05-05 18:10 49.26033 21.08335 33899 ft 436 kts 326°
2026-05-05 18:10 49.31140 21.03425 33896 ft 436 kts 326°
2026-05-05 18:11 49.36360 20.98678 33891 ft 437 kts 329°
2026-05-05 18:11 49.41679 20.94134 33892 ft 437 kts 329°
2026-05-05 18:12 49.46994 20.89598 33886 ft 438 kts 329°
2026-05-05 18:12 49.52318 20.85025 33882 ft 438 kts 329°
2026-05-05 18:13 49.57657 20.80438 33879 ft 438 kts 329°
2026-05-05 18:13 49.62965 20.75861 33872 ft 438 kts 329°
2026-05-05 18:14 49.68279 20.71261 33867 ft 439 kts 329°
2026-05-05 18:14 49.73603 20.66627 33869 ft 439 kts 328°
2026-05-05 18:15 49.78933 20.62003 33857 ft 439 kts 329°
2026-05-05 18:15 49.84252 20.57369 33854 ft 439 kts 328°
2026-05-05 18:16 49.89570 20.52713 33848 ft 438 kts 328°
2026-05-05 18:16 49.94877 20.48056 33835 ft 438 kts 328°
2026-05-05 18:17 50.00163 20.43388 33840 ft 437 kts 328°
2026-05-05 18:17 50.05418 20.38763 33835 ft 436 kts 328°
2026-05-05 18:18 50.10738 20.34091 33822 ft 436 kts 328°
2026-05-05 18:18 50.15983 20.29446 33827 ft 435 kts 328°
2026-05-05 18:19 50.21239 20.24773 33817 ft 435 kts 328°
2026-05-05 18:19 50.26470 20.20118 33815 ft 434 kts 328°
2026-05-05 18:20 50.31714 20.15440 33820 ft 434 kts 328°